GPS BIIR-13

Last updated on Sat Aug 15 2026 00:02:48 GMT+0000 (Coordinated Universal Time)

1 28474U 04045A 26226.21410479 -.00000093 00000+0 00000+0 0 9995 2 28474 55.0982 322.5580 0170945 317.7788 97.0590 2.00558399159598
UTC large
Height (km)
Speed (km/s)
/
Latitude / Longitude
Inclination (degrees)
Orbital Period (minutes)
Azimuth
Elevation
Range (km)
Doppler Factor

Next 0 passes for location: London (51.5072 / 0.1276)

No passes found over London.
GPS BIIR-13